Terug naar catalogus

PEGASUS DEB

ActiefPO
NORAD 25445·DEBRIS·🇺🇸 United States

Gelanceerd May 19, 1994 vanaf Vandenberg Space Force Base

Loading…

Volgende Passages (komende 24 uur)

TLE

VersSource: Space-Track

Epoch: Sep 14, 2026, 08:13 UTC

1 25445U 94029ADZ 26257.34258738  .00001090  00000-0  14725-3 0  9998
2 25445  81.9877  19.5150 0128752  13.0564  15.1884 14.72562618549600

Volg PEGASUS DEB in realtime met AllMySat

Download on the App Store